TimeCST,TemperatureF,Dew PointF,Humidity,Sea Level PressureIn,VisibilityMPH,Wind Direction,Wind SpeedMPH,Gust SpeedMPH,PrecipitationIn,Events,Conditions,WindDirDegrees,DateUTC
12:15 AM,73.4,68.0,83,29.94,7.0,SE,16.1,-,N/A,,Overcast,140,2012-12-15 06:15:00
12:35 AM,71.6,68.0,88,29.93,7.0,SE,15.0,-,N/A,,Overcast,130,2012-12-15 06:35:00
12:55 AM,71.6,68.0,88,29.93,6.0,SE,13.8,-,N/A,,Overcast,130,2012-12-15 06:55:00
1:15 AM,71.6,68.0,88,29.92,6.0,SE,15.0,-,N/A,,Overcast,130,2012-12-15 07:15:00
1:35 AM,71.6,68.0,88,29.91,5.0,SE,17.3,-,N/A,,Mostly Cloudy,140,2012-12-15 07:35:00
1:55 AM,71.6,69.8,94,29.90,5.0,SE,19.6,-,N/A,,Mostly Cloudy,140,2012-12-15 07:55:00
2:15 AM,71.6,69.8,94,29.91,5.0,SSE,19.6,-,N/A,,Overcast,150,2012-12-15 08:15:00
2:35 AM,71.6,69.8,94,29.90,5.0,SE,16.1,-,N/A,,Overcast,140,2012-12-15 08:35:00
2:55 AM,71.6,69.8,94,29.90,5.0,SE,16.1,-,N/A,,Overcast,130,2012-12-15 08:55:00
3:15 AM,71.6,69.8,94,29.90,3.0,SSE,10.4,19.6,N/A,,Scattered Clouds,150,2012-12-15 09:15:00
3:35 AM,71.6,69.8,94,29.90,4.0,SSE,13.8,-,N/A,,Scattered Clouds,160,2012-12-15 09:35:00
3:55 AM,71.6,69.8,94,29.89,5.0,SSE,18.4,-,N/A,,Mostly Cloudy,160,2012-12-15 09:55:00
4:15 AM,71.6,69.8,94,29.88,5.0,SSE,18.4,-,N/A,,Partly Cloudy,160,2012-12-15 10:15:00
4:35 AM,71.6,69.8,94,29.88,5.0,SSE,19.6,-,N/A,,Mostly Cloudy,160,2012-12-15 10:35:00
4:55 AM,71.6,69.8,94,29.87,5.0,SSE,18.4,-,N/A,,Overcast,160,2012-12-15 10:55:00
5:15 AM,71.6,69.8,94,29.87,4.0,SSE,18.4,-,N/A,,Overcast,160,2012-12-15 11:15:00
5:35 AM,71.6,69.8,94,29.87,4.0,South,17.3,-,N/A,,Overcast,170,2012-12-15 11:35:00
5:55 AM,71.6,69.8,94,29.87,4.0,SSE,16.1,-,N/A,,Overcast,160,2012-12-15 11:55:00
6:15 AM,71.6,69.8,94,29.88,4.0,SSE,12.7,-,N/A,,Overcast,160,2012-12-15 12:15:00
6:35 AM,71.6,69.8,94,29.88,4.0,SSE,15.0,-,N/A,,Overcast,160,2012-12-15 12:35:00
6:55 AM,71.6,69.8,94,29.88,4.0,SSE,16.1,-,N/A,,Overcast,150,2012-12-15 12:55:00
7:15 AM,71.6,69.8,94,29.89,3.0,SSW,13.8,-,N/A,,Mostly Cloudy,200,2012-12-15 13:15:00
7:35 AM,71.6,69.8,94,29.90,3.0,SSE,13.8,-,N/A,,Mostly Cloudy,160,2012-12-15 13:35:00
8:15 AM,71.6,69.8,94,29.90,3.0,SSE,17.3,-,N/A,,Mist,150,2012-12-15 14:15:00
8:35 AM,71.6,69.8,94,29.90,3.0,SSE,18.4,-,N/A,,Clear,150,2012-12-15 14:35:00
8:55 AM,71.6,69.8,94,29.90,3.0,SSE,17.3,-,N/A,,Clear,150,2012-12-15 14:55:00
9:15 AM,71.6,69.8,94,29.91,3.0,SSE,16.1,-,N/A,,Clear,150,2012-12-15 15:15:00
9:35 AM,73.4,69.8,88,29.92,3.0,SSE,16.1,-,N/A,,Clear,150,2012-12-15 15:35:00
9:55 AM,73.4,69.8,88,29.92,3.0,SSE,17.3,-,N/A,,Clear,150,2012-12-15 15:55:00
10:15 AM,73.4,69.8,88,29.92,3.0,SSE,16.1,-,N/A,,Clear,150,2012-12-15 16:15:00
10:35 AM,73.4,69.8,88,29.92,3.0,SSE,16.1,-,N/A,,Clear,150,2012-12-15 16:35:00
10:55 AM,71.6,69.8,94,29.94,2.5,South,6.9,13.8,N/A,,Mostly Cloudy,190,2012-12-15 16:55:00
11:15 AM,73.4,69.8,88,29.92,2.5,SSE,12.7,-,N/A,,Overcast,150,2012-12-15 17:15:00
11:55 AM,73.4,71.6,94,29.91,3.0,South,10.4,-,N/A,,Mostly Cloudy,170,2012-12-15 17:55:00
12:15 PM,73.4,69.8,88,29.90,2.5,SSE,11.5,-,N/A,,Partly Cloudy,150,2012-12-15 18:15:00
12:35 PM,73.4,71.6,94,29.89,3.0,SSE,11.5,-,N/A,,Clear,160,2012-12-15 18:35:00
12:55 PM,73.4,71.6,94,29.88,3.0,SE,13.8,-,N/A,,Clear,140,2012-12-15 18:55:00
1:15 PM,73.4,71.6,94,29.86,3.0,SE,15.0,-,N/A,,Clear,130,2012-12-15 19:15:00
1:35 PM,73.4,71.6,94,29.85,3.0,SE,15.0,-,N/A,,Clear,130,2012-12-15 19:35:00
1:55 PM,73.4,69.8,88,29.86,2.5,SE,12.7,-,N/A,,Partly Cloudy,130,2012-12-15 19:55:00
2:15 PM,73.4,69.8,88,29.84,2.5,ESE,13.8,-,N/A,,Partly Cloudy,120,2012-12-15 20:15:00
2:35 PM,73.4,69.8,88,29.84,3.0,SE,15.0,-,N/A,,Partly Cloudy,130,2012-12-15 20:35:00
2:55 PM,73.4,71.6,94,29.84,3.0,SE,16.1,-,N/A,,Partly Cloudy,130,2012-12-15 20:55:00
3:15 PM,73.4,69.8,88,29.84,3.0,SE,17.3,-,N/A,,Partly Cloudy,130,2012-12-15 21:15:00
3:35 PM,73.4,69.8,88,29.84,3.0,SE,17.3,-,N/A,,Partly Cloudy,130,2012-12-15 21:35:00
3:55 PM,71.6,69.8,94,29.84,3.0,ESE,16.1,-,N/A,,Partly Cloudy,120,2012-12-15 21:55:00
4:15 PM,71.6,69.8,94,29.84,3.0,ESE,16.1,-,N/A,,Mostly Cloudy,120,2012-12-15 22:15:00
4:35 PM,71.6,69.8,94,29.84,3.0,ESE,16.1,-,N/A,,Scattered Clouds,120,2012-12-15 22:35:00
4:55 PM,71.6,69.8,94,29.84,3.0,ESE,16.1,-,N/A,,Mostly Cloudy,120,2012-12-15 22:55:00
5:15 PM,71.6,69.8,94,29.84,2.5,ESE,17.3,-,N/A,,Overcast,110,2012-12-15 23:15:00
5:55 PM,71.6,69.8,94,29.84,3.0,ESE,18.4,-,N/A,,Overcast,120,2012-12-15 23:55:00
6:15 PM,71.6,69.8,94,29.85,4.0,ESE,16.1,-,N/A,,Overcast,120,2012-12-16 00:15:00
6:35 PM,71.6,69.8,94,29.86,4.0,ESE,16.1,-,N/A,,Overcast,120,2012-12-16 00:35:00
6:55 PM,73.4,71.6,94,29.86,4.0,ESE,18.4,-,N/A,,Overcast,120,2012-12-16 00:55:00
7:15 PM,73.4,69.8,88,29.86,4.0,ESE,16.1,-,N/A,,Overcast,120,2012-12-16 01:15:00
7:35 PM,73.4,69.8,88,29.86,4.0,ESE,16.1,-,N/A,,Overcast,120,2012-12-16 01:35:00
7:55 PM,73.4,69.8,88,29.87,4.0,ESE,17.3,-,N/A,,Overcast,120,2012-12-16 01:55:00
8:15 PM,71.6,69.8,94,29.88,3.0,ESE,15.0,-,N/A,,Overcast,120,2012-12-16 02:15:00
8:55 PM,71.6,69.8,94,29.88,3.0,SE,13.8,-,N/A,,Overcast,130,2012-12-16 02:55:00
9:15 PM,71.6,69.8,94,29.88,3.0,ESE,12.7,-,N/A,,Overcast,120,2012-12-16 03:15:00
9:35 PM,71.6,69.8,94,29.87,3.0,SE,13.8,-,N/A,,Overcast,130,2012-12-16 03:35:00
9:55 PM,73.4,71.6,94,29.87,4.0,SE,20.7,-,N/A,,Overcast,130,2012-12-16 03:55:00
10:15 PM,73.4,71.6,94,29.87,4.0,SE,18.4,-,N/A,,Mostly Cloudy,130,2012-12-16 04:15:00
10:35 PM,71.6,69.8,94,29.87,3.0,SE,16.1,-,N/A,,Overcast,130,2012-12-16 04:35:00
10:55 PM,71.6,69.8,94,29.87,3.0,SE,16.1,-,N/A,,Overcast,130,2012-12-16 04:55:00
11:15 PM,71.6,69.8,94,29.86,3.0,SE,17.3,-,N/A,,Overcast,130,2012-12-16 05:15:00
11:55 PM,71.6,69.8,94,29.84,4.0,SE,17.3,-,N/A,,Overcast,140,2012-12-16 05:55:00